Lewiston, WA

5:42 AM PST on January 16, 2018 (GMT -0800)
Lewiston-Nez Perce County

Weather History for KLWS - September, 2014

Change the Weather History Date:

Saturday, September 6, 2014

  Actual Average Record
Temperature  
Mean Temperature 70 °F 68 °F  
Max Temperature 90 °F 82 °F 108 °F (1944)
Min Temperature 50 °F 54 °F 36 °F (1895)
Degree Days  
Heating Degree Days 0 1  
Month to date heating degree days 0 6  
Since 1 July heating degree days 0 21  
Cooling Degree Days 5 5  
Month to date cooling degree days 16 31  
Year to date cooling degree days 986 748  
Growing Degree Days 20 (Base 50)    
Moisture  
Dew Point 33 °F    
Average Humidity 33    
Maximum Humidity 54    
Minimum Humidity 12    
Precipitation  
Precipitation 0.00 in 0.02 in 0.43 in (1927)
Month to date precipitation T 0.14  
Year to date precipitation 7.67 8.67  
Snow  
Snow 0.00 in 0.00 in 0.00 in (1998)
Month to date snowfall 0.0 0.0  
Since 1 July snowfall 0.0 0.0  
Since 1 September snowfall 0.0 0.0  
Snow Depth 0.00 in    
Sea Level Pressure  
Sea Level Pressure 30.01 in    
Wind  
Wind Speed 4 mph (SSE)    
Max Wind Speed 9 mph    
Max Gust Speed 10 mph    
Visibility 10 miles    
Events      
T = Trace of Precipitation, MM = Missing Value Source: NWS Daily Summary

Daily Weather History Graph

Daily Weather History Graph

Search for Another Location

Airport or City:

Trip Planner

Search our weather history database for the weather conditions in past years. The results will help you decide how hot, cold, wet, or windy it might be!

Date:

Astronomy

Sep. 06, 2014 Rise Set
Actual Time 6:14 AM PDT 7:17 PM PDT
Civil Twilight 5:44 AM PDT 7:47 PM PDT
Nautical Twilight 5:07 AM PDT 8:24 PM PDT
Astronomical Twilight 4:28 AM PDT 9:03 PM PDT
Moon 5:41 PM PDT (9/6) 3:14 AM PDT (9/6)
Length of Visible Light 14h 03m
Length of Day
13h 02m
Waxing Gibbous, 92% of the Moon is Illuminated
Sep 6
Waxing Gibbous
Sep 8
Full
Sep 15
Last Quarter
Sep 23
New
Oct 1
First Quarter

Hourly Weather History & Observations

Time (PDT) Temp. Dew Point Humidity Pressure Visibility Wind Dir Wind Speed Gust Speed Precip Events Conditions
12:56 AM 59.0 °F 32.0 °F 36% 30.09 in 10.0 mi SSE 4.6 mph - N/A   Clear
1:56 AM 57.9 °F 32.0 °F 37% 30.09 in 10.0 mi SSE 3.5 mph - N/A   Clear
2:56 AM 55.0 °F 33.1 °F 43% 30.10 in 10.0 mi SE 5.8 mph - N/A   Clear
3:56 AM 55.9 °F 34.0 °F 44% 30.10 in 10.0 mi Calm Calm - N/A   Clear
4:56 AM 54.0 °F 30.9 °F 41% 30.11 in 10.0 mi SSE 3.5 mph - N/A   Clear
5:56 AM 51.1 °F 36.0 °F 56% 30.11 in 10.0 mi East 4.6 mph - N/A   Clear
6:56 AM 53.1 °F 37.0 °F 55% 30.12 in 10.0 mi East 5.8 mph - N/A   Clear
6:58 AM - - N/A% 30.13 in 10.0 mi ESE 4.6 mph - N/A   Clear
7:56 AM 55.9 °F 37.9 °F 51% 30.12 in 10.0 mi ENE 5.8 mph - N/A   Clear
8:56 AM 61.0 °F 39.0 °F 44% 30.12 in 10.0 mi Variable 5.8 mph - N/A   Clear
9:56 AM 66.0 °F 39.0 °F 37% 30.11 in 10.0 mi Calm Calm - N/A   Clear
10:56 AM 70.0 °F 37.0 °F 30% 30.09 in 10.0 mi Calm Calm - N/A   Clear
10:58 AM - - N/A% 30.10 in 10.0 mi Calm Calm - N/A   Clear
11:56 AM 75.9 °F 37.0 °F 24% 30.05 in 10.0 mi ENE 4.6 mph - N/A   Clear
12:56 PM 80.1 °F 34.0 °F 19% 30.02 in 10.0 mi Calm Calm - N/A   Clear
1:56 PM 82.0 °F 37.9 °F 21% 29.99 in 10.0 mi Calm Calm - N/A   Clear
2:56 PM 87.1 °F 34.0 °F 15% 29.96 in 10.0 mi Calm Calm - N/A   Clear
3:56 PM 88.0 °F 34.0 °F 15% 29.93 in 10.0 mi North - - N/A   Clear
4:56 PM 89.1 °F 33.1 °F 14% 29.91 in 10.0 mi Variable 4.6 mph - N/A   Clear
5:56 PM 89.1 °F 30.9 °F 12% 29.89 in 10.0 mi WSW 4.6 mph - N/A   Clear
6:56 PM 84.2 °F 32.0 °F 15% 29.90 in 10.0 mi NW 6.9 mph - N/A   Clear
7:56 PM 80.1 °F 27.0 °F 14% 29.88 in 10.0 mi West 4.6 mph - N/A   Clear
8:56 PM 73.0 °F 30.9 °F 21% 29.89 in 10.0 mi South 5.8 mph - N/A   Clear
9:56 PM 72.0 °F 28.9 °F 20% 29.88 in 10.0 mi South 9.2 mph - N/A   Clear
10:56 PM 69.1 °F 30.0 °F 23% 29.88 in 10.0 mi SSW 8.1 mph - N/A   Clear
11:56 PM 66.0 °F 30.0 °F 26% 29.88 in 10.0 mi SSE 5.8 mph - N/A   Clear